User: anonymous   Login
Location: Kam�li
(14.6864°N, 3.1482°W)
Time: 12:57:03
(UTC+00:00)
Language:

CZ-2D R/B - Orbit

View from above orbital plane
View from above orbital plane
View from above satellite
View from above satellite

Ground track
Ground track

The orbit data is extracted from the following two-line orbital elements,

1 28738U 05024B   21017.12364788  .00000363  00000-0  24566-4 0  9998
2 28738  97.3696  38.4571 0012394 158.1447 202.0315 15.12239677853717
Epoch (UTC): 17 January 2021 02:58:03
Eccentricity: 0.0012394
inclination: 97.3696°
perigee height: 521 km
apogee height: 538 km
right ascension of ascending node: 38.4571°
argument of perigee: 158.1447°
revolutions per day: 15.12239677
mean anomaly at epoch: 202.0315°
orbit number at epoch: 85371

The dashed part of the orbit path shows where the satellite is in the earth's shadow,  

DLR